This is the latest recevied weather packets stored in our database for station/object WD9EKA. If no packets are shown the sender has not sent any weather packets the latest 10 day(s).
| Time | Temp. | Humidity | Pressure | Rain* | Wind** | Luminosity | Snow |
|---|---|---|---|---|---|---|---|
| 1787491590 | 18.33° C | 95% | 1012.2 hPa | 0 mm | - | - | - |
| 1787491270 | 18.89° C | 99% | 1012.3 hPa | 0 mm | - | - | - |
| 1787490950 | 18.33° C | 99% | 1012.5 hPa | 0 mm | - | - | - |
| 1787490630 | 17.78° C | 99% | 1012.3 hPa | 0 mm | - | - | - |
| 1787490310 | 16.67° C | 99% | 1012.4 hPa | 0 mm | - | - | - |
| 1787489990 | 17.22° C | 99% | 1012.2 hPa | 0 mm | - | - | - |
| 1787489670 | 17.22° C | 99% | 1012.5 hPa | 0 mm | - | - | - |
| 1787489351 | 17.22° C | 99% | 1012.5 hPa | 0 mm | - | - | - |
| 1787489030 | 16.67° C | 99% | 1012.4 hPa | 0 mm | - | - | - |
| 1787488710 | 16.11° C | 99% | 1012.4 hPa | 0 mm | - | - | - |
| 1787488390 | 16.11° C | 99% | 1012.3 hPa | 0 mm | - | - | - |
| 1787488070 | 15.56° C | 99% | 1012.4 hPa | 0 mm | - | - | - |
| 1787487430 | 14.44° C | 99% | 1012.2 hPa | 0 mm | - | - | - |
| 1787487109 | 14.44° C | 99% | 1012.3 hPa | 0 mm | - | - | - |
| 1787486790 | 14.44° C | 99% | 1012 hPa | 0 mm | - | - | - |
| 1787486470 | 13.89° C | 99% | 1011.9 hPa | 0 mm | - | - | - |
| 1787486150 | 13.89° C | 99% | 1012.2 hPa | 0 mm | - | - | - |
| 1787485829 | 13.89° C | 99% | 1012.1 hPa | 0 mm | - | - | - |
| 1787485510 | 13.89° C | 99% | 1012 hPa | 0 mm | - | - | - |
| 1787485190 | 13.89° C | 99% | 1012.1 hPa | 0 mm | - | - | - |
| 1787484870 | 13.89° C | 99% | 1011.9 hPa | 0 mm | - | - | - |
| 1787484550 | 13.89° C | 99% | 1011.9 hPa | 0 mm | - | - | - |
| 1787484230 | 13.89° C | 99% | 1011.9 hPa | 0 mm | - | - | - |
| 1787483910 | 13.89° C | 99% | 1011.6 hPa | 0 mm | - | - | - |
| 1787483590 | 13.89° C | 99% | 1011.8 hPa | 0 mm | - | - | - |
* Rain latest hour (hover to see other rain measurements)
** Current wind speed in m/s (hover to see current wind gust speed)